CZ-6A DEB, 61380

Orbit data source: Space-Track

CZ-6A DEB, 61380 is space debris in LEO originally from a launch on Tue, 06 Aug 2024 UTC launched from the Taiyaun Space Center, China (TSC). Debris objects in space refer to the collection of defunct objects orbiting the Earth. Examples of debris include non-operational satellites, rocket bodies, and fragments generated from explosions, collisions, or faulty payload assembly.

Loading next visibility...
Identifier
61380, 2024-140WV
Orbit
LEO
Country
Flag of CNCN / PRC
Related business
Manufacturer
SAST
Mission
Spacecraft
Bus & Motor
Unknown
Mass
Unknown
Launch date (UTC)
2024-08-06 (1 year ago)
Launch vehicle
Unknown
Launch site
Taiyaun Space Center, China (TSC)
Object type
Payload
Rocket body
Debris
Shape & HBR
Unknown shape, 0.1 m
Radar Cross Section
Small (<0.1 m²)

Expand to show TLE details & history
Last TLE update: 2 days ago

TLE from 2 days ago
0 CZ-6A DEB
1 61380U 24140WV  25312.00297329  .00004809  00000-0  12460-2 0  9990
2 61380  89.1226 304.3758 0074125 323.8922  35.7290 14.48054816 62214
Epoch: 2025-11-08T00:04Z
TLE epoch observation values (Epoch: 2025-11-08T00:04:16.892Z)
Latitude
0.00002°
Longitude
-104.13341°
Altitude
692.443 km
Speed
7.532 km/s
True Right ascension
20h 17m 30s
True Declination
0° 00' 00"
Sunlit
Object was in daylight at epoch
Visualization orbit readout
Latitude
Unknown
Longitude
Unknown
Altitude
Unknown
Speed
Unknown
Apparent Right ascension
Unknown
Apparent Declination
Unknown
Sunlit
N/A
Visualization observer readout
Local Sidereal Time
19:41:49
Azimuth
Unknown
Elevation
Unknown
Doppler factor
Unknown
Orbital elements
Apogee altitude
781.6 km
Perigee altitude
676.238 km
Semi-major axis
7,107.056 km
Eccentricity
0.00741
Inclination
89.1226°
RAAN
304.3758°
Arg. of periapsis
323.8922°
True anomaly
36.22877°
Mean anomaly
35.729°
Eccentric anomaly
35.97851°
Mean motion
3.6225 °/min
Orbital period
99.38 mins
BSTAR
0.001246
Loading maneuver chart data...
Computing Atmospheric mass density...

Documentation

Showing up to 5 results
|